User: anonymous   Login
Location: Unspecified
(0.0000°N, 0.0000°E)
Time: 02:05:46
(UTC+00:00)
Language:

STARLINK-33937 - Orbit

View from above orbital plane
View from above orbital plane
View from above satellite
View from above satellite

Ground track
Ground track

The orbit is defined by the following mean orbital elements,

1 63704U          26145.50026536 +.00000000 +00000-0 +20285-3 0 00008
2 63704  53.1580 222.4958 0001218  88.9500 271.1641 15.30203446    08
Epoch (UTC): 25 May 2026 12:00:22
Eccentricity: 0.0001218
inclination: 53.1580°
perigee height: 474 km
apogee height: 476 km
right ascension of ascending node: 222.4958°
argument of perigee: 88.9500°
revolutions per day: 15.30203446
mean anomaly at epoch: 271.1641°

The dashed part of the orbit path shows where the satellite is in the earth's shadow,  

DLR